ATLAS AGENA B DEB, 3121

Orbit data source: Space-Track

ATLAS AGENA B DEB, 3121 is space debris in LEO originally from a launch on Fri, 19 Jul 1963 UTC via an ATLAS AGENA B launch vehicle from the Air Force Western Test Range (AFWTR). Debris objects in space refer to the collection of defunct objects orbiting the Earth. Examples of debris include non-operational satellites, rocket bodies, and fragments generated from explosions, collisions, or faulty payload assembly.

Loading next visibility...
Identifier
3121, 1963-030F
Orbit
LEO
Country
Flag of USUS
Related business
Manufacturer
MIT-LL
Mission
Spacecraft
Bus & Motor
Unknown
Mass
8 kg wet, 8 kg dry
Launch date (UTC)
1963-07-19 (62 years ago)
Launch vehicle
ATLAS AGENA B
Launch site
Air Force Western Test Range (AFWTR)
Object type
Payload
Rocket body
Debris
Shape & HBR
Unknown
Radar Cross Section
Medium (>0.1 m² and <1 m²)

Expand to show TLE details & history
Last TLE update: 3 weeks ago

TLE from 3 weeks ago
0 ATLAS AGENA B DEB
1 03121U 63030F   25236.86184311 -.00000001  00000-0 -17419-2 0  9996
2 03121  88.4192 224.9857 0032318   4.3022 355.8101  8.57968079181356
Epoch: 2025-08-24T20:41Z
TLE epoch observation values (Epoch: 2025-08-24T20:41:03.244Z)
Latitude
-0.00004°
Longitude
-58.65399°
Altitude
3,670.638 km
Speed
6.309 km/s
True Right ascension
14h 59m 56s
True Declination
0° 00' 00"
Sunlit
Object was in daylight at epoch
Visualization orbit readout
Latitude
Unknown
Longitude
Unknown
Altitude
Unknown
Speed
Unknown
Apparent Right ascension
Unknown
Apparent Declination
Unknown
Sunlit
N/A
Visualization observer readout
Local Sidereal Time
19:51:11
Azimuth
Unknown
Elevation
Unknown
Doppler factor
Unknown
Orbital elements
Apogee altitude
3,731.341 km
Perigee altitude
3,666.208 km
Semi-major axis
10,076.911 km
Eccentricity
0.00323
Inclination
88.4192°
RAAN
224.9857°
Arg. of periapsis
4.3022°
True anomaly
355.78293°
Mean anomaly
355.8101°
Eccentric anomaly
355.79653°
Mean motion
2.14562 °/min
Orbital period
167.78 mins
BSTAR
-0.0017419
Loading maneuver chart data...
Computing Atmospheric mass density...
Loading historical data...
Loading historical data...
Loading historical data...
Loading historical data...
Loading historical data...
Loading historical data...
Loading historical data...

Documentation

Showing up to 5 results
|